Simultaneous Nadir Overpasses (SNOs) Predictions

Prediction of SNOs between GOES-16 and METOP-A Satellite Orbit:

Table of predicted SNOs for the next 14.0 days since TLE Epoch: 7/3/2021
Index Date Time (GOES-16) GOES-16 Lat,Lon METOP-A Lat,Lon Distance(km) Time Diff (sec)
1 07/03/2021 12:59:00 -0.07, -75.14 -0.41, -73.75 158.92 80
2 07/05/2021 01:20:39 0.07, -75.11 -0.64, -78.38 372.37 80
3 07/06/2021 00:57:19 0.08, -75.11 0.43, -73.40 194.67 80
4 07/07/2021 13:18:51 -0.07, -75.15 0.53, -78.01 325.64 80
5 07/08/2021 12:55:31 -0.08, -75.15 -0.54, -73.03 241.46 80
6 07/10/2021 01:17:10 0.08, -75.13 -0.51, -77.66 289.35 80
7 07/11/2021 00:53:50 0.09, -75.13 0.62, -72.69 277.98 80
8 07/12/2021 13:15:22 -0.08, -75.17 0.39, -77.29 241.54 80
9 07/13/2021 12:52:02 -0.10, -75.18 -0.74, -72.32 326.12 80
10 07/15/2021 01:13:41 0.09, -75.17 -0.31, -76.95 203.55 80
11 07/16/2021 00:50:22 0.10, -75.18 0.82, -71.98 364.52 80
